OneWeb SL0163

operational
NORAD ID: 48061 Int'l Des: 2021-025 Owner: ONEWEBN Country: UK Constellation: oneweb
LEOCIRCULARPOLARONEWEB_TYPE

Über OneWeb SL0163

Beschreibung wird geladen...

Live-Position

3D-Globus wird geladen...

Nächste Überflüge

Höhenverlauf

Altitude vs Time

uPlot chart will show altitude changes over time

Zweizeiliger Elementsatz

1 48061U 21025V 26034.58391066 -.00000343 00000-0 -97296-3 0 9990
2 48061 87.9031 346.7750 0001902 89.7258 270.4089 13.13469652236148
Epoch: 3. Feb. 2026 • Age: 19 hours

Aktueller Status

Höhe 1218.3 km
Geschwindigkeit 7.25 km/s
Subsatellitenpunkt 57.81°N, 86.57°E
Startdatum 25. März 2021
Alter 4.8 years
Typ internet

Technische Details

Klassifizierung Payload
Masse 148.00 kg
Trockenmasse 140.00 kg
Gesamtmasse 148.00 kg
Länge 1.30 m
Durchmesser 1.00 m
Spannweite 5.00 m
Form Trapezoid+2 pan
Hersteller ONEWUS
Bus-Typ ARROW
Phasenstatus In Orbit
Besitzer/Staat ONEWEBN/UK

Große Konstellationen

Loading constellations...